Time,TemperatureF,DewpointF,PressureIn,WindDirection,WindDirectionDegrees,WindSpeedMPH,WindSpeedGustMPH,Humidity,HourlyPrecipIn,Conditions,Clouds,dailyrainin,SoftwareType,DateUTC
2013-08-06 00:00:00,61.3,59.3,29.47,NW,311,0.0,4.0,93,0.00,,,0.00,Wunderground v.1.15,2013-08-05 23:00:00,
2013-08-06 00:10:00,61.0,59.0,29.48,NW,311,0.0,4.0,93,0.00,,,0.00,Wunderground v.1.15,2013-08-05 23:10:00,
2013-08-06 00:20:00,60.9,58.9,29.49,NW,319,0.0,4.0,93,0.00,,,0.00,Wunderground v.1.15,2013-08-05 23:20:00,
2013-08-06 00:25:00,60.7,58.7,29.49,NW,319,0.0,4.0,93,0.00,,,0.00,Wunderground v.1.15,2013-08-05 23:25:00,
2013-08-06 00:35:00,60.5,58.5,29.49,NW,319,0.0,4.0,93,0.00,,,0.00,Wunderground v.1.15,2013-08-05 23:35:00,
2013-08-06 00:45:00,60.2,58.2,29.49,NW,319,0.0,4.0,93,0.00,,,0.00,Wunderground v.1.15,2013-08-05 23:45:00,
2013-08-06 00:55:00,60.1,58.1,29.49,NW,319,0.0,4.0,93,0.00,,,0.00,Wunderground v.1.15,2013-08-05 23:55:00,
2013-08-06 01:00:00,59.9,57.9,29.49,NW,319,0.0,2.0,93,0.00,,,0.00,Wunderground v.1.15,2013-08-06 00:00:00,
2013-08-06 01:10:00,59.8,57.8,29.50,NW,319,0.0,2.0,93,0.00,,,0.00,Wunderground v.1.15,2013-08-06 00:10:00,
2013-08-06 01:15:00,59.6,57.6,29.50,NW,319,0.0,2.0,93,0.00,,,0.00,Wunderground v.1.15,2013-08-06 00:15:00,
2013-08-06 01:25:00,59.3,57.3,29.50,NW,319,0.0,4.0,93,0.00,,,0.00,Wunderground v.1.15,2013-08-06 00:25:00,
2013-08-06 01:35:00,59.0,57.0,29.50,NW,319,0.0,4.0,93,0.00,,,0.00,Wunderground v.1.15,2013-08-06 00:35:00,
2013-08-06 01:40:00,58.9,56.9,29.50,NNW,344,0.0,4.0,93,0.00,,,0.00,Wunderground v.1.15,2013-08-06 00:40:00,
2013-08-06 01:50:00,58.6,56.6,29.50,NNW,344,0.0,4.0,93,0.00,,,0.00,Wunderground v.1.15,2013-08-06 00:50:00,
2013-08-06 02:00:00,58.3,56.3,29.50,NNW,344,0.0,2.0,93,0.00,,,0.00,Wunderground v.1.15,2013-08-06 01:00:00,
2013-08-06 02:10:00,58.0,56.0,29.51,NNW,344,0.0,2.0,93,0.00,,,0.00,Wunderground v.1.15,2013-08-06 01:10:00,
2013-08-06 02:20:00,57.8,55.5,29.51,NNW,344,0.0,2.0,92,0.00,,,0.00,Wunderground v.1.15,2013-08-06 01:20:00,
2013-08-06 02:25:00,57.5,55.2,29.51,NNW,344,0.0,2.0,92,0.00,,,0.00,Wunderground v.1.15,2013-08-06 01:25:00,
2013-08-06 02:35:00,57.2,54.9,29.52,NNW,344,0.0,1.0,92,0.00,,,0.00,Wunderground v.1.15,2013-08-06 01:35:00,
2013-08-06 02:45:00,56.7,54.4,29.52,NNW,344,0.0,1.0,92,0.00,,,0.00,Wunderground v.1.15,2013-08-06 01:45:00,
2013-08-06 02:55:00,56.5,54.2,29.52,NNW,344,0.0,1.0,92,0.00,,,0.00,Wunderground v.1.15,2013-08-06 01:55:00,
2013-08-06 03:05:00,56.0,53.7,29.52,NNW,344,0.0,0.0,92,0.00,,,0.00,Wunderground v.1.15,2013-08-06 02:05:00,
2013-08-06 03:15:00,55.6,53.3,29.52,NNW,344,0.0,0.0,92,0.00,,,0.00,Wunderground v.1.15,2013-08-06 02:15:00,
2013-08-06 03:20:00,55.3,53.0,29.53,NNW,344,0.0,0.0,92,0.00,,,0.00,Wunderground v.1.15,2013-08-06 02:20:00,
2013-08-06 03:30:00,54.8,52.5,29.53,NNW,344,0.0,0.0,92,0.00,,,0.00,Wunderground v.1.15,2013-08-06 02:30:00,
2013-08-06 03:40:00,54.5,52.2,29.53,NNW,344,0.0,0.0,92,0.00,,,0.00,Wunderground v.1.15,2013-08-06 02:40:00,
2013-08-06 03:45:00,54.4,52.1,29.53,NNW,344,0.0,0.0,92,0.00,,,0.00,Wunderground v.1.15,2013-08-06 02:45:00,
2013-08-06 03:55:00,53.8,51.5,29.53,NNW,344,0.0,0.0,92,0.00,,,0.00,Wunderground v.1.15,2013-08-06 02:55:00,
2013-08-06 04:05:00,53.5,51.2,29.54,NNW,344,0.0,0.0,92,0.00,,,0.00,Wunderground v.1.15,2013-08-06 03:05:00,
2013-08-06 04:10:00,53.2,50.9,29.54,NNW,344,0.0,0.0,92,0.00,,,0.00,Wunderground v.1.15,2013-08-06 03:10:00,
2013-08-06 04:20:00,52.9,50.6,29.54,NNW,344,0.0,0.0,92,0.00,,,0.00,Wunderground v.1.15,2013-08-06 03:20:00,
2013-08-06 04:25:00,52.8,50.5,29.54,NNW,344,0.0,0.0,92,0.00,,,0.00,Wunderground v.1.15,2013-08-06 03:25:00,
2013-08-06 04:30:00,52.5,50.2,29.54,NNW,344,0.0,0.0,92,0.00,,,0.00,Wunderground v.1.15,2013-08-06 03:30:00,
2013-08-06 04:40:00,52.3,50.0,29.55,NNW,344,0.0,0.0,92,0.00,,,0.00,Wunderground v.1.15,2013-08-06 03:40:00,
2013-08-06 04:45:00,52.2,49.9,29.55,NNW,344,0.0,0.0,92,0.00,,,0.00,Wunderground v.1.15,2013-08-06 03:45:00,
2013-08-06 04:55:00,52.0,50.0,29.55,NNW,344,0.0,0.0,93,0.00,,,0.00,Wunderground v.1.15,2013-08-06 03:55:00,
2013-08-06 05:05:00,51.9,49.9,29.55,NNW,344,0.0,0.0,93,0.00,,,0.00,Wunderground v.1.15,2013-08-06 04:05:00,
2013-08-06 05:10:00,51.7,49.7,29.55,NNW,344,0.0,0.0,93,0.00,,,0.00,Wunderground v.1.15,2013-08-06 04:10:00,
2013-08-06 05:15:00,51.7,49.7,29.55,NNW,344,0.0,0.0,93,0.00,,,0.00,Wunderground v.1.15,2013-08-06 04:15:00,
2013-08-06 05:20:00,51.6,49.6,29.56,NNW,344,0.0,0.0,93,0.00,,,0.00,Wunderground v.1.15,2013-08-06 04:20:00,
2013-08-06 05:25:00,51.6,49.6,29.56,NNW,344,0.0,0.0,93,0.00,,,0.00,Wunderground v.1.15,2013-08-06 04:25:00,
2013-08-06 05:35:00,51.6,49.6,29.56,NNW,344,0.0,0.0,93,0.00,,,0.00,Wunderground v.1.15,2013-08-06 04:35:00,
2013-08-06 05:45:00,51.6,49.6,29.56,NNW,344,0.0,0.0,93,0.00,,,0.00,Wunderground v.1.15,2013-08-06 04:45:00,
2013-08-06 05:55:00,51.4,49.4,29.56,NNW,344,0.0,0.0,93,0.00,,,0.00,Wunderground v.1.15,2013-08-06 04:55:00,
2013-08-06 06:05:00,51.4,49.4,29.56,NNW,344,0.0,0.0,93,0.00,,,0.00,Wunderground v.1.15,2013-08-06 05:05:00,
2013-08-06 06:10:00,51.3,49.3,29.56,NNW,344,0.0,0.0,93,0.00,,,0.00,Wunderground v.1.15,2013-08-06 05:10:00,
2013-08-06 06:20:00,51.3,49.3,29.57,NNW,344,0.0,0.0,93,0.00,,,0.00,Wunderground v.1.15,2013-08-06 05:20:00,
2013-08-06 06:30:00,51.3,49.3,29.57,NNW,344,0.0,0.0,93,0.00,,,0.00,Wunderground v.1.15,2013-08-06 05:30:00,
2013-08-06 06:40:00,51.4,49.4,29.57,NNW,344,0.0,0.0,93,0.00,,,0.00,Wunderground v.1.15,2013-08-06 05:40:00,
2013-08-06 06:50:00,51.7,49.7,29.58,NNW,344,0.0,0.0,93,0.00,,,0.00,Wunderground v.1.15,2013-08-06 05:50:00,
2013-08-06 07:00:00,52.6,50.9,29.58,NNW,344,0.0,0.0,94,0.00,,,0.00,Wunderground v.1.15,2013-08-06 06:00:00,
2013-08-06 07:05:00,53.1,51.4,29.58,NNW,344,0.0,0.0,94,0.00,,,0.00,Wunderground v.1.15,2013-08-06 06:05:00,
2013-08-06 07:15:00,53.9,52.2,29.58,NNW,344,0.0,0.0,94,0.00,,,0.00,Wunderground v.1.15,2013-08-06 06:15:00,
2013-08-06 07:25:00,54.8,53.1,29.58,NNW,344,0.0,0.0,94,0.00,,,0.00,Wunderground v.1.15,2013-08-06 06:25:00,
2013-08-06 07:30:00,55.4,53.7,29.58,NNW,344,0.0,0.0,94,0.00,,,0.00,Wunderground v.1.15,2013-08-06 06:30:00,
2013-08-06 07:40:00,56.0,54.3,29.59,NNW,344,0.0,0.0,94,0.00,,,0.00,Wunderground v.1.15,2013-08-06 06:40:00,
2013-08-06 07:50:00,56.5,54.8,29.59,NNW,344,0.0,0.0,94,0.00,,,0.00,Wunderground v.1.15,2013-08-06 06:50:00,
2013-08-06 08:00:00,57.0,55.3,29.59,NNW,344,0.0,0.0,94,0.00,,,0.00,Wunderground v.1.15,2013-08-06 07:00:00,
2013-08-06 08:10:00,57.5,55.8,29.59,NNW,344,0.0,0.0,94,0.00,,,0.00,Wunderground v.1.15,2013-08-06 07:10:00,
2013-08-06 08:20:00,58.1,56.4,29.59,NNW,344,0.0,0.0,94,0.00,,,0.00,Wunderground v.1.15,2013-08-06 07:20:00,
2013-08-06 08:30:00,58.6,56.9,29.59,NNW,344,0.0,2.0,94,0.00,,,0.00,Wunderground v.1.15,2013-08-06 07:30:00,
2013-08-06 08:40:00,59.0,57.3,29.59,NNW,344,0.0,2.0,94,0.00,,,0.00,Wunderground v.1.15,2013-08-06 07:40:00,
2013-08-06 08:50:00,59.5,57.8,29.60,NNW,344,0.0,2.0,94,0.00,,,0.00,Wunderground v.1.15,2013-08-06 07:50:00,
2013-08-06 09:00:00,60.4,58.7,29.60,NNW,344,0.0,1.0,94,0.00,,,0.00,Wunderground v.1.15,2013-08-06 08:00:00,
2013-08-06 09:10:00,60.7,59.0,29.60,NNW,344,0.0,2.0,94,0.00,,,0.00,Wunderground v.1.15,2013-08-06 08:10:00,
2013-08-06 09:20:00,61.0,59.0,29.60,NNW,344,1.0,1.0,93,0.00,,,0.00,Wunderground v.1.15,2013-08-06 08:20:00,
2013-08-06 09:30:00,61.8,59.5,29.60,NNW,344,0.0,4.0,92,0.00,,,0.00,Wunderground v.1.15,2013-08-06 08:30:00,
2013-08-06 09:40:00,63.1,59.8,29.60,NNW,344,0.0,4.0,89,0.00,,,0.00,Wunderground v.1.15,2013-08-06 08:40:00,
2013-08-06 09:50:00,63.7,57.8,29.60,NNW,344,0.0,4.0,81,0.00,,,0.00,Wunderground v.1.15,2013-08-06 08:50:00,
2013-08-06 10:00:00,65.6,57.1,29.60,WNW,282,0.0,2.0,74,0.00,,,0.00,Wunderground v.1.15,2013-08-06 09:00:00,
2013-08-06 10:10:00,66.8,56.7,29.60,NW,315,0.0,2.0,70,0.00,,,0.00,Wunderground v.1.15,2013-08-06 09:10:00,
2013-08-06 10:20:00,67.4,55.6,29.60,NW,315,0.0,2.0,66,0.00,,,0.00,Wunderground v.1.15,2013-08-06 09:20:00,
2013-08-06 10:30:00,66.3,54.2,29.60,NW,315,0.0,4.0,65,0.00,,,0.00,Wunderground v.1.15,2013-08-06 09:30:00,
2013-08-06 10:40:00,65.8,53.3,29.60,NW,315,0.0,4.0,64,0.00,,,0.00,Wunderground v.1.15,2013-08-06 09:40:00,
2013-08-06 10:45:00,65.6,53.1,29.60,NW,318,0.0,4.0,64,0.00,,,0.00,Wunderground v.1.15,2013-08-06 09:45:00,
2013-08-06 10:55:00,65.3,52.4,29.60,NW,318,0.0,4.0,63,0.00,,,0.00,Wunderground v.1.15,2013-08-06 09:55:00,
2013-08-06 11:05:00,65.2,53.6,29.60,NW,315,0.0,4.0,66,0.00,,,0.00,Wunderground v.1.15,2013-08-06 10:05:00,
2013-08-06 11:15:00,65.0,49.4,29.60,NW,326,0.0,8.0,57,0.00,,,0.00,Wunderground v.1.15,2013-08-06 10:15:00,